Regional Weather Roundup
Issued by NWS State College, PA

Home | Current Version | Previous Version | Graphics & Text | Print | Product List | Glossary Off
Versions: 1 2 3 4 5 6 7 8 9 10 11 12 13 14 15 16 17 18 19 20 21 22 23 24 25 26 27 28 29 30 31 32 33 34 35 36 37 38 39 40 41 42 43 44 45 46 47 48 49 50

000
ASUS41 KCTP 022103
RWRCTP

REGIONAL WEATHER ROUNDUP
NATIONAL WEATHER SERVICE STATE COLLEGE PA
500 PM EDT WED SEP 02 2015

Note: "fair" indicates few or no clouds below 12,000 feet with no
significant weather and/or obstructions to visibility.

* = STATION THAT DOES NOT REPORT PRECIPITATION /E.G. RAIN...SNOW...ETC/
    THUNDER OR FOG.

PAZ002>004-007>009-013>016-020>023-029>032-022200-
WESTERN PENNSYLVANIA

CITY           SKY/WX    TMP DP  RH WIND       PRES   REMARKS
ERIE           FAIR      83  67  58 W8        29.98F
MEADVILLE      FAIR      83  65  54 W6        30.02F
FRANKLIN*      FAIR      84  64  51 NW7       30.04S
NEW CASTLE     FAIR      88  66  47 CALM      30.01F
BEAVER COUNTY  PTSUNNY   88  63  42 W5        30.02F
BUTLER*        FAIR      88  63  42 NW3       30.02F
PITTSBURGH INT FAIR      89  61  38 W6        30.01F
PITTSBURGH     FAIR      86  58  38 VRB3      30.00F
INDIANA*       SUNNY     82  68  61 CALM      30.05F
LATROBE        MOSUNNY   81  64  57 N6        30.03F
WASHINGTON CO* FAIR      88  63  42 W7        30.02F
$$

PAZ004>006-010>012-017>019-024>028-033>037-041-042-045-046-049>053-022200-
CENTRAL PENNSYLVANIA

CITY           SKY/WX    TMP DP  RH WIND       PRES   REMARKS
BRADFORD       FAIR      82  63  52 NW9       30.04F
DUBOIS         FAIR      79  68  69 SW5       30.03F HAZE
CLEARFIELD     FAIR      85  65  51 NW10      30.01F
JOHNSTOWN      PTSUNNY   77  65  66 N8        30.07F
ALTOONA        PTSUNNY   77  70  79 SW6       30.03S
STATE COLLEGE  MOSUNNY   86  64  48 CALM      29.98F
WILLIAMSPORT   FAIR      88  65  46 NE5       29.93F
SELINSGROVE    FAIR      88  67  49 CALM      29.95S
FT INDIANTOWN  FAIR      89  66  46 VRB3      29.95S
CAPITAL CITY   FAIR      89  63  41 N7        29.93F
HARRISBURG     FAIR      90  63  40 NW9       29.93S
YORK           FAIR      88  66  48 NE3       29.95S
$$

PAZ038>040-043-044-047-048-054-055-060>062-067>071-022200-
EASTERN PENNSYLVANIA

CITY           SKY/WX    TMP DP  RH WIND       PRES   REMARKS
SCRANTON       FAIR      87  64  46 W9        29.96F
MOUNT POCONO   FAIR      82  60  47 N7        30.01F
ALLENTOWN      PTSUNNY   91  64  40 VRB5      29.92F
QUAKERTOWN*    FAIR      90  64  43 SW3       29.94S
READING        FAIR      89  61  38 W8        29.92F
LANCASTER      FAIR      88  61  40 NW10      29.94S
COATESVILLE    FAIR      88  57  35 NW8       29.96S
POTTSTOWN      FAIR      88  63  43 NW7       29.94F
BLUE BELL      FAIR      90  64  43 W6        29.92S
DOYLESTOWN     FAIR      87  62  43 VRB6      29.92F
WILLOW GROVE   NOT AVBL
NORTH PHILA    FAIR      93  58  30 NW7       29.92F
PHILADELPHIA   FAIR      93  60  33 SW8       29.91F
$$



USA.gov is the U.S. government's official web portal to all federal, state and local government web resources and services.